Regional Weather Roundup
Issued by NWS Jackson, KY

Home | Current Version | Previous Version | Text Only | Print | Product List | Glossary Off
Versions: 1 2 3 4 5 6 7 8 9 10 11 12 13 14 15 16 17 18 19 20 21 22 23 24 25 26 27 28 29 30 31 32 33 34 35 36 37 38 39 40 41 42 43 44 45 46 47 48 49 50

000
ASUS43 KJKL 231310
RWRJKL

EAST KENTUCKY HOURLY WEATHER ROUNDUP
NATIONAL WEATHER SERVICE JACKSON KY
900 AM EDT TUE SEP 23 2014

NOTE: "FAIR" INDICATES FEW OR NO CLOUDS BELOW 12,000 FEET WITH
NO SIGNIFICANT WEATHER AND/OR OBSTRUCTIONS TO VISIBILITY.

* THESE REPORTS ARE NOT UNDER NWS QUALITY CONTROL AND MAY NOT
  REPORT WEATHER SUCH AS PRECIPITATION AND FOG.

KYZ079-080-083-085-087-088-110-112-115-119-120-231400
...EASTERN KENTUCKY...

CITY           SKY/WX    TMP DP  RH WIND       PRES   REMARKS
JACKSON        SUNNY     51  46  83 CALM      30.31R
LONDON         SUNNY     52  47  83 N5        30.30S
SOMERSET*      SUNNY     50  48  93 NE3       30.31R
MONTICELLO*    SUNNY     53  49  86 CALM      30.30S
MIDDLESBORO*   CLOUDY    47  47 100 CALM      30.31R FOG
HARLAN APT*    CLOUDY    46  46 100 MISG      30.30R
HAZARD APT*    FOG       46  46 100 CALM      30.31R VSB 0
BLACK MTN*       N/A     50  45  81 N2          N/A
PIKEVILLE APT* FOG       46  46 100 CALM      30.32R VSB 0
BIG SANDY*     FOG       46  46 100 E3        30.33R VSB<1/4
MOREHEAD APT*  SUNNY     52  45  76 CALM      30.34S
$$

KYZ035-036-041-042-044-050-067-078-099-231400
...CENTRAL KENTUCKY...

CITY           SKY/WX    TMP DP  RH WIND       PRES   REMARKS
MT STERLING*   SUNNY     50  45  81 CALM      30.34R
FLEMING/MASON* SUNNY     46  45  93 CALM      30.35R
DANVILLE*      SUNNY     46  45  93 CALM      30.33R
RICHMOND*      SUNNY     48  45  87 CALM      30.31R
LEXINGTON      SUNNY     54  46  74 NE5       30.32R
FRANKFORT      SUNNY     50  45  83 E5        30.32R
$$

KYZ091>093-OHZ055-061-077-WVZ005-015-034-035-042-231400
...SOUTHERN OHIO/WEST VIRGINIA...

CITY           SKY/WX    TMP DP  RH WIND       PRES   REMARKS
COVINGTON      SUNNY     53  46  77 VRB3      30.34R
COLUMBUS       SUNNY     52  44  74 CALM      30.36R
DAYTON         SUNNY     52  45  77 CALM      30.35R
WILMINGTON     SUNNY     49  43  80 SE3       30.35R
HUNTINGTON     SUNNY     50  47  89 CALM      30.32R
CHARLESTON     FOG       45  45 100 CALM      30.33R VSB 1/8
PINEVILLE*     CLOUDY    47  47 100 MISG      30.38R FOG
BECKLEY        SUNNY     48  43  82 CALM      30.33R
BLUEFIELD      FOG       44  42  93 E6        30.33R VSB<1/4
$$

VAZ002-007-008-TNZ017-027-036-066-071-231400
...SOUTHWEST VIRGINIA/EAST TENNESSEE...

CITY           SKY/WX    TMP DP  RH WIND       PRES   REMARKS
WISE*          SUNNY     50  48  93 NE6       30.32R
JONESVILLE*    FOG       45  45 100 CALM      30.31S VSB 1
ABINGDON*      SUNNY     53  48  83 E8        30.29R
BRISTOL        MOSUNNY   51  46  83 CALM      30.28S
KNOXVILLE      SUNNY     56  49  77 NE10      30.25R
OAK RIDGE      SUNNY     57  50  77 CALM      30.28R
CROSSVILLE     SUNNY     53  48  83 E3        30.27S
NASHVILLE      SUNNY     55  48  77 NE8       30.27R
$$

...KEY TO REMARKS...
VSB - VISIBILITY IN MILES
WCI - WIND CHILL INDEX
HX  - HEAT INDEX

$$


USA.gov is the U.S. government's official web portal to all federal, state and local government web resources and services.